FW6720 Weather Reports


Display with metric or nautical units.
time (UTC)temp
F
wind
direction
speed
MPH
gust
MPH
rain 1hr
in
rain 24hr
in
rain mn
in
humidity
%
barometer
mb
20260506073310 55 16 0.0 0.0 0.00 0.00 0.00 86 1019.5
20260506072806 55 16 0.0 0.0 0.00 0.00 0.00 86 1019.6
20260506072305 55 16 0.0 0.0 0.00 0.00 0.00 86 1019.6
20260506071802 55 16 0.0 0.0 0.00 0.00 0.00 86 1019.4
20260506071300 55 16 0.0 0.0 0.00 0.00 0.00 86 1019.3
20260506070756 55 16 0.0 0.0 0.00 0.00 0.00 86 1019.4
20260506070253 55 16 0.0 0.0 0.00 0.00 0.00 86 1019.5
20260506062230 56 16 0.0 0.0 0.00 0.00 0.00 83 1019.4
20260506061726 56 16 0.0 0.0 0.00 0.00 0.00 83 1019.3
20260506061224 56 16 0.0 0.0 0.00 0.00 0.00 83 1019.1
20260506060722 57 16 0.0 0.0 0.00 0.00 0.00 83 1019.3
20260506060219 57 16 0.0 0.0 0.00 0.00 0.00 83 1019.3
20260506051151 57 16 0.0 0.0 0.00 0.00 0.00 86 1019.0
20260506050649 57 17 0.0 0.0 0.00 0.00 0.00 86 1019.0
20260506050146 57 16 0.0 0.0 0.00 0.00 0.00 86 1018.9
20260506044637 57 16 0.0 0.0 0.00 0.00 0.00 86 1018.8
20260506044134 57 16 0.0 0.0 0.00 0.00 0.00 86 1018.8
20260506043631 57 16 0.0 0.0 0.00 0.00 0.00 86 1018.7
20260506043129 57 16 0.0 0.0 0.00 0.00 0.00 86 1018.8
20260506042627 57 16 0.0 0.0 0.00 0.00 0.00 86 1018.6
20260506042125 57 16 0.0 0.0 0.00 0.00 0.00 86 1018.5
20260506041624 57 16 0.0 0.0 0.00 0.00 0.00 86 1018.4
20260506041120 57 16 0.0 0.0 0.00 0.00 0.00 86 1018.5
20260506040618 57 16 0.0 0.0 0.00 0.00 0.00 86 1018.4
20260506040114 57 16 0.0 0.0 0.00 0.00 0.00 86 1018.5
20260506035611 57 16 0.0 0.0 0.00 0.00 0.00 86 1018.2
20260506035108 57 16 0.0 0.0 0.00 0.00 0.00 86 1018.1
20260506034605 57 16 0.0 0.0 0.00 0.00 0.00 86 1018.1
20260506034102 57 16 0.0 0.0 0.00 0.00 0.00 85 1018.1
20260506033559 57 16 0.0 0.0 0.00 0.00 0.00 85 1017.9
20260506033056 57 16 0.0 0.0 0.00 0.00 0.00 84 1017.7
20260506032553 58 16 0.0 0.0 0.00 0.00 0.00 84 1018.0
20260506032050 58 16 0.0 0.0 0.00 0.00 0.00 83 1017.6
20260506031548 58 16 0.0 0.0 0.00 0.00 0.00 83 1017.5
20260506031044 59 15 0.0 0.0 0.00 0.00 0.00 82 1017.5
20260506030543 59 15 0.0 0.0 0.00 0.00 0.00 82 1017.6
20260506030039 59 15 0.0 0.0 0.00 0.00 0.00 81 1017.4
20260506025536 60 15 0.0 0.0 0.00 0.00 0.00 80 1017.3
20260506025032 61 15 0.0 0.0 0.00 0.00 0.00 78 1017.3
20260506024530 61 15 0.0 0.0 0.00 0.00 0.00 76 1017.5
20260506024026 62 15 0.0 0.0 0.00 0.00 0.00 75 1017.2
20260506023522 62 15 0.0 0.0 0.00 0.00 0.00 76 1017.2
20260506023020 62 15 0.0 0.0 0.00 0.00 0.00 76 1017.1
20260506022517 62 15 0.0 0.0 0.00 0.00 0.00 75 1017.0
20260506022014 63 15 0.0 0.0 0.00 0.00 0.00 74 1017.0
20260506021512 63 15 0.0 0.0 0.00 0.00 0.00 73 1016.9
20260506021009 63 15 0.0 0.0 0.00 0.00 0.00 72 1017.2
20260506020507 63 15 0.0 0.0 0.00 0.00 0.00 72 1017.1
20260506020004 64 15 0.0 0.0 0.00 0.00 0.00 71 1017.2
20260506015501 64 15 0.0 0.0 0.00 0.00 0.00 71 1017.0
20260506014958 64 15 0.0 0.0 0.00 0.00 0.00 70 1017.0
20260506014455 64 15 0.0 0.0 0.00 0.00 0.00 70 1017.0
20260506013951 64 15 0.0 0.0 0.00 0.00 0.00 70 1017.2
20260506013449 64 14 0.0 0.0 0.00 0.00 0.00 69 1017.0
20260506012945 65 14 0.0 0.0 0.00 0.00 0.00 70 1016.9
20260506012442 65 15 0.0 1.0 0.00 0.00 0.00 68 1017.1
20260506011939 65 13 0.0 0.0 0.00 0.00 0.00 71 1017.0
20260506011436 65 14 0.0 0.0 0.00 0.00 0.00 68 1017.2
20260506010933 65 13 0.0 0.0 0.00 0.00 0.00 69 1017.1
20260506010432 65 13 0.0 0.0 0.00 0.00 0.00 69 1016.9
20260506005927 65 13 0.0 0.0 0.00 0.00 0.00 68 1017.0
20260506005426 65 13 0.0 0.0 0.00 0.00 0.00 67 1017.0
20260506004920 65 13 0.0 0.0 0.00 0.00 0.00 68 1017.1
20260506004419 66 13 0.0 0.0 0.00 0.00 0.00 68 1017.0
20260506003914 66 13 0.0 0.0 0.00 0.00 0.00 68 1016.9
20260506003411 66 13 0.0 0.0 0.00 0.00 0.00 67 1017.2
20260506002908 66 56 0.0 0.0 0.00 0.00 0.00 67 1017.0
20260506002404 66 60 0.0 0.0 0.00 0.00 0.00 67 1016.7
20260506001859 66 7 0.0 0.0 0.00 0.00 0.00 68 1017.1
20260506001356 66 7 0.0 0.0 0.00 0.00 0.00 65 1017.0
20260506000853 66 5 0.0 0.0 0.00 0.00 0.00 66 1016.9
20260506000353 66 5 0.0 0.0 0.00 0.00 0.00 66 1017.0
20260505235848 66 7 0.0 0.0 0.00 0.00 0.00 67 1016.9
20260505235345 66 8 0.0 0.0 0.00 0.00 0.00 66 1017.2
20260505234842 66 5 2.0 3.0 0.00 0.00 0.00 65 1017.2
20260505234340 66 56 0.0 0.0 0.00 0.00 0.00 66 1017.2
20260505233836 66 35 0.0 0.0 0.00 0.00 0.00 66 1017.1
20260505233334 66 64 0.0 1.0 0.00 0.00 0.00 65 1017.4
20260505232832 66 62 0.0 0.0 0.00 0.00 0.00 65 1017.2
20260505232330 67 29 0.0 1.0 0.00 0.00 0.00 64 1017.4
20260505231826 67 30 0.0 0.0 0.00 0.00 0.00 65 1017.3
20260505231324 66 133 1.0 1.0 0.00 0.00 0.00 67 1017.5
20260505230822 66 26 0.0 0.0 0.00 0.00 0.00 66 1017.5
20260505230318 66 23 0.0 1.0 0.00 0.00 0.00 65 1017.5
20260505225815 66 48 0.0 0.0 0.00 0.00 0.00 65 1017.9
20260505225312 67 74 0.0 0.0 0.00 0.00 0.00 65 1017.5
20260505224807 67 24 0.0 2.0 0.00 0.00 0.00 64 1017.7
20260505224305 67 23 0.0 0.0 0.00 0.00 0.00 64 1017.7
20260505223802 66 302 1.0 2.0 0.00 0.00 0.00 65 1017.7
20260505223259 66 26 0.0 0.0 0.00 0.00 0.00 65 1018.0
20260505222755 66 26 0.0 0.0 0.00 0.00 0.00 64 1017.5
20260505222251 66 20 0.0 0.0 0.00 0.00 0.00 67 1017.9
20260505221748 68 27 0.0 1.0 0.00 0.00 0.00 65 1017.6
20260505221245 66 26 0.0 0.0 0.00 0.00 0.00 65 1018.0
20260505220742 66 61 0.0 0.0 0.00 0.00 0.00 65 1018.0
20260505220239 66 63 0.0 0.0 0.00 0.00 0.00 65 1018.2
20260505215737 65 56 0.0 0.0 0.00 0.00 0.00 65 1018.0
20260505215234 64 51 0.0 0.0 0.00 0.00 0.00 68 1018.1
20260505214732 66 115 2.0 3.0 0.00 0.00 0.00 67 1018.2
20260505214229 66 51 0.0 0.0 0.00 0.00 0.00 65 1018.2
20260505213726 64 111 0.0 0.0 0.00 0.00 0.00 69 1018.3
20260505213224 64 35 0.0 0.0 0.00 0.00 0.00 68 1018.2
20260505212719 64 64 0.0 1.0 0.00 0.00 0.00 68 1018.3
20260505212212 64 168 0.0 0.0 0.00 0.00 0.00 68 1018.4
20260505211708 64 168 0.0 0.0 0.00 0.00 0.00 68 1018.5
20260505211206 64 52 0.0 0.0 0.00 0.00 0.00 71 1018.5
20260505210702 62 64 0.0 0.0 0.00 0.00 0.00 70 1018.5
20260505210159 62 31 0.0 0.0 0.00 0.00 0.00 69 1018.4
20260505205656 62 87 0.0 0.0 0.00 0.00 0.00 69 1018.6
20260505205154 62 30 0.0 0.0 0.00 0.00 0.00 70 1018.6
20260505204651 61 59 0.0 0.0 0.00 0.00 0.00 71 1018.6
20260505204149 61 120 0.0 0.0 0.00 0.00 0.00 70 1018.8
20260505203646 60 121 0.0 0.0 0.00 0.00 0.00 72 1018.8
20260505203142 60 127 0.0 0.0 0.00 0.00 0.00 72 1018.9
20260505202638 60 126 0.0 0.0 0.00 0.00 0.00 72 1018.8
20260505202134 60 126 0.0 0.0 0.00 0.00 0.00 72 1018.8
20260505201630 60 126 0.0 0.0 0.00 0.00 0.00 72 1018.8
20260505201128 60 27 0.0 0.0 0.00 0.00 0.00 71 1018.8
20260505200626 61 27 0.0 0.0 0.00 0.00 0.00 70 1018.9
20260505200123 61 28 0.0 0.0 0.00 0.00 0.00 71 1018.6
20260505195619 60 28 0.0 0.0 0.00 0.00 0.00 73 1018.7
20260505195117 60 28 0.0 0.0 0.00 0.00 0.00 72 1018.6
20260505194608 60 27 0.0 0.0 0.00 0.00 0.00 71 1019.0
20260505194104 60 26 0.0 0.0 0.00 0.00 0.00 72 1018.8
20260505193601 59 26 0.0 0.0 0.00 0.00 0.00 73 1018.8
20260505193058 60 44 0.0 0.0 0.00 0.00 0.00 73 1018.7
20260505192557 59 44 0.0 0.0 0.00 0.00 0.00 72 1018.8
20260505192054 59 43 0.0 0.0 0.00 0.00 0.00 72 1018.8
20260505191552 59 43 0.0 0.0 0.00 0.00 0.00 72 1018.7
20260505191049 59 43 0.0 0.0 0.00 0.00 0.00 72 1018.7
20260505190544 59 61 0.0 0.0 0.00 0.00 0.00 75 1019.0
20260505190040 59 24 0.0 0.0 0.00 0.00 0.00 73 1018.8
20260505185537 59 22 0.0 0.0 0.00 0.00 0.00 73 1018.8
20260505185034 58 23 0.0 0.0 0.00 0.00 0.00 73 1019.0
20260505184531 59 25 1.0 1.0 0.00 0.00 0.00 73 1018.8
20260505184027 58 23 0.0 0.0 0.00 0.00 0.00 74 1018.6
20260505183524 59 23 0.0 0.0 0.00 0.00 0.00 74 1018.6
20260505183022 59 24 0.0 0.0 0.00 0.00 0.00 72 1018.7
20260505182518 58 24 0.0 0.0 0.00 0.00 0.00 72 1018.8
20260505182014 57 25 0.0 0.0 0.00 0.00 0.00 74 1018.8
20260505181511 58 23 0.0 0.0 0.00 0.00 0.00 75 1018.5
20260505181008 57 21 0.0 0.0 0.00 0.00 0.00 74 1018.8
20260505180504 57 21 0.0 0.0 0.00 0.00 0.00 75 1018.8
20260505180002 57 21 0.0 0.0 0.00 0.00 0.00 75 1019.0
20260505175457 57 21 0.0 0.0 0.00 0.00 0.00 75 1018.7
20260505174954 57 21 0.0 0.0 0.00 0.00 0.00 77 1018.8
20260505174451 56 21 0.0 0.0 0.00 0.00 0.00 77 1018.7
20260505173947 57 21 0.0 0.0 0.00 0.00 0.00 75 1018.7
20260505173444 56 21 0.0 0.0 0.00 0.00 0.00 76 1018.7
20260505172941 56 21 0.0 0.0 0.00 0.00 0.00 77 1018.7
20260505172439 56 21 0.0 0.0 0.00 0.00 0.00 77 1018.7
20260505171938 56 21 0.0 0.0 0.00 0.00 0.00 77 1018.5
20260505171435 56 21 0.0 0.0 0.00 0.00 0.00 76 1018.6
20260505170932 56 21 0.0 0.0 0.00 0.00 0.00 76 1018.4
20260505170429 56 20 0.0 0.0 0.00 0.00 0.00 76 1018.6
20260505165924 56 20 0.0 0.0 0.00 0.00 0.00 77 1018.3
20260505165420 56 20 0.0 0.0 0.00 0.00 0.00 78 1018.2
20260505164915 56 20 0.0 0.0 0.00 0.00 0.00 76 1018.3
20260505164413 56 20 0.0 0.0 0.00 0.00 0.00 78 1018.3
20260505163911 55 20 0.0 0.0 0.00 0.00 0.00 77 1018.3
20260505163410 55 20 0.0 0.0 0.00 0.00 0.00 78 1018.2
20260505162908 55 21 0.0 0.0 0.00 0.00 0.00 78 1018.2
20260505162403 55 20 0.0 0.0 0.00 0.00 0.00 78 1018.1
20260505161900 55 20 0.0 0.0 0.00 0.00 0.00 78 1018.2
20260505161357 55 20 0.0 0.0 0.00 0.00 0.00 79 1018.4
20260505160854 55 20 0.0 0.0 0.00 0.00 0.00 78 1018.3
20260505160352 55 20 0.0 0.0 0.00 0.00 0.00 80 1018.3
20260505153325 54 20 0.0 0.0 0.00 0.00 0.00 80 1018.2
20260505152822 54 20 0.0 0.0 0.00 0.00 0.00 80 1017.9
20260505152319 53 20 0.0 0.0 0.00 0.00 0.00 81 1018.2
20260505151814 53 20 0.0 0.0 0.00 0.00 0.00 80 1018.0
20260505151310 53 20 0.0 0.0 0.00 0.00 0.00 81 1018.1
20260505150807 53 20 0.0 0.0 0.00 0.00 0.00 81 1017.9
20260505150305 53 20 0.0 0.0 0.00 0.00 0.00 81 1018.2
20260505140229 52 20 0.0 0.0 0.00 0.00 0.00 84 1017.4
20260505130152 51 22 0.0 0.0 0.00 0.00 0.00 88 1017.0
20260505124637 51 22 0.0 0.0 0.00 0.00 0.00 87 1016.9
20260505124133 51 22 0.0 0.0 0.00 0.00 0.00 87 1017.0
20260505123629 51 22 0.0 0.0 0.00 0.00 0.00 87 1017.1
20260505123126 51 22 0.0 0.0 0.00 0.00 0.00 87 1017.0
20260505122623 51 22 0.0 0.0 0.00 0.00 0.00 86 1016.8
20260505122120 51 22 0.0 0.0 0.00 0.00 0.00 87 1016.9
20260505121616 51 22 0.0 0.0 0.00 0.00 0.00 86 1016.9
20260505121113 51 22 0.0 0.0 0.00 0.00 0.00 86 1017.1
20260505120609 51 22 0.0 0.0 0.00 0.00 0.00 87 1017.0
20260505120105 51 22 0.0 0.0 0.00 0.00 0.00 87 1016.9
20260505115600 51 22 0.0 0.0 0.00 0.00 0.00 89 1017.2
20260505115058 51 22 0.0 0.0 0.00 0.00 0.00 89 1016.9
20260505114555 51 22 0.0 0.0 0.00 0.00 0.00 89 1017.0
20260505114051 51 22 0.0 0.0 0.00 0.00 0.00 89 1016.8
20260505113547 51 22 0.0 0.0 0.00 0.00 0.00 89 1016.8
20260505113044 50 22 0.0 0.0 0.00 0.00 0.00 89 1016.8
20260505112540 50 22 0.0 0.0 0.00 0.00 0.00 89 1016.7
20260505112038 50 22 0.0 0.0 0.00 0.00 0.00 89 1016.8
20260505111532 50 22 0.0 0.0 0.00 0.00 0.00 89 1016.9
20260505111028 50 22 0.0 0.0 0.00 0.00 0.00 89 1016.7
20260505110525 50 22 0.0 0.0 0.00 0.00 0.00 89 1016.7
20260505101957 50 22 0.0 0.0 0.00 0.00 0.00 90 1016.5
20260505101450 50 22 0.0 0.0 0.00 0.00 0.00 90 1016.5
20260505100946 50 22 0.0 0.0 0.00 0.00 0.00 90 1016.5
20260505100443 50 22 0.0 0.0 0.00 0.00 0.00 90 1016.7
20260505095939 50 22 0.0 0.0 0.00 0.00 0.00 90 1016.5
20260505095436 50 22 0.0 0.0 0.00 0.00 0.00 90 1016.5
20260505094932 50 22 0.0 0.0 0.00 0.00 0.00 90 1016.7
20260505094429 50 22 0.0 0.0 0.00 0.00 0.00 90 1016.5
20260505093925 49 22 0.0 0.0 0.00 0.00 0.00 90 1016.5
20260505093422 49 22 0.0 0.0 0.00 0.00 0.00 91 1016.5
20260505092919 49 22 0.0 0.0 0.00 0.00 0.00 91 1016.4
20260505092417 49 22 0.0 0.0 0.00 0.00 0.00 90 1016.3
20260505091915 49 22 0.0 0.0 0.00 0.00 0.00 90 1016.3
20260505091412 49 22 0.0 0.0 0.00 0.00 0.00 90 1016.3
20260505090910 49 22 0.0 0.0 0.00 0.00 0.00 90 1016.4
20260505090408 49 22 0.0 0.0 0.00 0.00 0.00 90 1016.3
20260505085905 49 22 0.0 0.0 0.00 0.00 0.00 90 1016.3
20260505085403 49 22 0.0 0.0 0.00 0.00 0.00 89 1016.2
20260505084901 49 22 0.0 0.0 0.00 0.00 0.00 89 1016.3
20260505084359 49 22 0.0 0.0 0.00 0.00 0.00 89 1016.2
20260505083856 49 22 0.0 0.0 0.00 0.00 0.00 89 1016.1
20260505083354 49 22 0.0 0.0 0.00 0.00 0.00 89 1016.3
20260505082849 49 22 0.0 0.0 0.00 0.00 0.00 89 1016.2
20260505082346 49 22 0.0 0.0 0.00 0.00 0.00 88 1015.9
20260505081842 50 22 0.0 0.0 0.00 0.00 0.00 88 1016.0
20260505081339 50 22 0.0 0.0 0.00 0.00 0.00 87 1015.9
20260505080836 50 23 0.0 0.0 0.00 0.00 0.00 87 1015.8
20260505080332 51 23 0.0 0.0 0.00 0.00 0.00 86 1015.9
20260505075827 51 23 0.0 0.0 0.00 0.00 0.00 87 1015.8
20260505075325 51 23 0.0 0.0 0.00 0.00 0.00 88 1015.7
20260505074822 50 23 0.0 0.0 0.00 0.00 0.00 89 1015.8
20260505074319 50 23 0.0 0.0 0.00 0.00 0.00 89 1016.0
20260505073816 50 23 0.0 0.0 0.00 0.00 0.00 89 1015.8